QPF
0.00 0.00 0.00 0.00 0.00 0.00 0.00 0.00 0.00 0.00 0.00 0.00 0.00 0.00 0.00 0.00 0.00 0.00 0.00 0.00 0.00 0.00 0.00 0.00 0.00 0.00 0.00 0.00 0.00 0.00 0.04 0.13 0.05 0.06 0.05 0.00 0.00 0.00 0.00 0.00 0.00 0.00 0.00 0.00 0.00
0.00 0.00 0.00 0.00 0.00 0.00 0.00 0.00 0.00 0.00 0.00 0.00 0.00 0.00 0.00 0.00 0.00 0.00 0.00 0.00 0.00 0.00 0.00 0.00 0.00 0.00 0.00 0.00 0.00 0.04 0.10 0.05 0.00 0.01 0.02 0.00 0.02 0.00 0.00 0.00 0.00 0.00 0.00 0.00 0.00
0.00 0.00 0.00 0.00 0.00 0.00 0.00 0.00 0.00 0.00 0.00 0.00 0.00 0.00 0.00 0.00 0.00 0.00 0.00 0.00 0.00 0.00 0.00 0.00 0.00 0.00 0.00 0.00 0.00 0.01 0.04 0.02 0.01 0.00 0.00 0.00 0.00 0.00 0.00 0.00 0.00 0.00 0.00 0.00 0.00
0.00 0.00 0.00 0.00 0.00 0.00 0.00 0.00 0.00 0.00 0.00 0.00 0.00 0.00 0.00 0.00 0.00 0.00 0.00 0.00 0.00 0.00 0.00 0.00 0.00 0.00 0.00 0.00 0.00 0.01 0.00 0.00 0.00 0.00 0.00 0.00 0.01 0.00 0.00 0.00 0.00 0.00 0.00 0.00 0.00
0.00 0.00 0.00 0.00 0.00 0.00 0.00 0.00 0.00 0.00 0.00 0.00 0.00 0.00 0.00 0.00 0.00 0.00 0.00 0.00 0.00 0.00 0.00 0.00 0.00 0.00 0.00 0.00 0.00 0.00 0.00 0.00 0.00 0.00 0.00 0.00 0.06 0.00 0.00 0.00 0.00 0.00 0.00 0.00 0.00
0.00 0.00 0.00 0.00 0.00 0.00 0.00 0.00 0.00 0.00 0.00 0.00 0.00 0.00 0.00 0.00 0.00 0.00 0.00 0.00 0.00 0.00 0.00 0.00 0.00 0.00 0.00 0.00 0.00 0.00 0.00 0.00 0.00 0.00 0.00 0.01 0.02 0.01 0.04 0.00 0.00 0.00 0.00 0.00 0.00
0.00 0.00 0.00 0.00 0.00 0.00 0.00 0.00 0.00 0.00 0.00 0.00 0.00 0.00 0.00 0.00 0.00 0.00 0.00 0.00 0.00 0.00 0.00 0.00 0.00 0.00 0.00 0.00 0.00 0.00 0.00 0.00 0.00 0.00 0.00 0.00 0.08 0.01 0.02 0.00 0.00 0.00 0.00 0.00 0.00
0.00 0.00 0.00 0.00 0.00 0.00 0.00 0.00 0.00 0.00 0.00 0.00 0.00 0.00 0.00 0.00 0.00 0.00 0.00 0.00 0.00 0.00 0.00 0.00 0.00 0.00 0.00 0.00 0.00 0.00 0.00 0.04 0.02 0.01 0.02 0.04 0.10 0.11 0.03 0.02 0.00 0.01 0.01 0.00 0.00
0.00 0.00 0.00 0.00 0.00 0.00 0.00 0.00 0.00 0.00 0.00 0.00 0.00 0.00 0.00 0.00 0.00 0.00 0.00 0.00 0.00 0.00 0.00 0.00 0.00 0.00 0.00 0.00 0.00 0.00 0.01 0.05 0.02 0.00 0.01 0.07 0.18 0.04 0.01 0.02 0.01 0.01 0.01 0.00 0.00
0.00 0.00 0.00 0.00 0.00 0.00 0.00 0.00 0.00 0.00 0.00 0.00 0.00 0.00 0.00 0.00 0.00 0.00 0.00 0.00 0.00 0.00 0.00 0.00 0.00 0.00 0.00 0.00 0.00 0.00 0.00 0.00 0.04 0.00 0.01 0.06 0.11 0.02 0.00 0.01 0.05 0.01 0.00 0.00 0.00
0.00 0.00 0.00 0.00 0.00 0.00 0.00 0.00 0.00 0.00 0.00 0.00 0.00 0.00 0.00 0.00 0.00 0.00 0.00 0.00 0.00 0.00 0.00 0.00 0.00 0.00 0.00 0.00 0.00 0.00 0.00 0.00 0.01 0.00 0.05 0.04 0.05 0.02 0.00 0.00 0.02 0.02 0.01 0.00 0.00
0.00 0.00 0.00 0.00 0.00 0.00 0.00 0.00 0.00 0.00 0.00 0.00 0.00 0.00 0.00 0.00 0.00 0.00 0.00 0.00 0.00 0.00 0.00 0.00 0.00 0.00 0.00 0.00 0.00 0.00 0.00 0.00 0.00 0.00 0.02 0.01 0.00 0.02 0.04 0.03 0.02 0.00 0.01 0.00 0.00
0.00 0.00 0.00 0.00 0.00 0.00 0.00 0.00 0.00 0.00 0.00 0.00 0.00 0.00 0.00 0.00 0.00 0.00 0.00 0.00 0.00 0.00 0.00 0.00 0.00 0.00 0.00 0.00 0.00 0.00 0.00 0.00 0.01 0.00 0.00 0.00 0.02 0.00 0.02 0.06 0.03 0.00 0.01 0.00 0.00
0.00 0.00 0.00 0.00 0.00 0.00 0.00 0.00 0.00 0.00 0.00 0.00 0.00 0.00 0.00 0.00 0.00 0.00 0.00 0.00 0.00 0.00 0.00 0.00 0.00 0.00 0.00 0.00 0.00 0.00 0.00 0.00 0.00 0.00 0.01 0.01 0.03 0.06 0.00 0.00 0.02 0.02 0.00 0.00 0.00
0.00 0.00 0.00 0.00 0.00 0.00 0.00 0.00 0.00 0.00 0.00 0.00 0.00 0.00 0.00 0.00 0.00 0.00 0.00 0.00 0.00 0.00 0.00 0.00 0.00 0.00 0.00 0.00 0.00 0.00 0.00 0.00 0.00 0.00 0.00 0.00 0.02 0.05 0.00 0.00 0.00 0.00 0.00 0.00 0.00
0.00 0.00 0.00 0.00 0.00 0.00 0.00 0.00 0.00 0.00 0.00 0.00 0.00 0.00 0.00 0.00 0.00 0.00 0.00 0.00 0.00 0.00 0.00 0.00 0.00 0.00 0.00 0.00 0.00 0.00 0.00 0.00 0.00 0.00 0.00 0.00 0.01 0.12 0.05 0.00 0.00 0.00 0.00 0.00 0.00
0.00 0.00 0.00 0.00 0.00 0.00 0.00 0.00 0.00 0.00 0.00 0.00 0.00 0.00 0.00 0.00 0.00 0.00 0.00 0.00 0.00 0.00 0.00 0.00 0.00 0.00 0.00 0.00 0.00 0.00 0.00 0.00 0.00 0.00 0.00 0.01 0.00 0.05 0.03 0.00 0.00 0.01 0.00 0.00 0.00
0.00 0.00 0.00 0.00 0.00 0.00 0.00 0.00 0.00 0.00 0.00 0.00 0.00 0.00 0.00 0.00 0.00 0.00 0.00 0.00 0.00 0.00 0.00 0.00 0.00 0.00 0.00 0.00 0.00 0.00 0.00 0.00 0.00 0.02 0.04 0.02 0.00 0.03 0.00 0.00 0.00 0.00 0.00 0.00 0.01
0.00 0.00 0.00 0.00 0.00 0.00 0.00 0.00 0.00 0.00 0.00 0.00 0.00 0.00 0.00 0.00 0.00 0.00 0.00 0.00 0.00 0.00 0.00 0.00 0.00 0.00 0.00 0.00 0.00 0.00 0.00 0.00 0.00 0.00 0.04 0.06 0.01 0.02 0.00 0.00 0.00 0.00 0.00 0.00 0.00
0.00 0.00 0.00 0.00 0.00 0.00 0.00 0.00 0.00 0.00 0.00 0.00 0.00 0.00 0.00 0.00 0.00 0.00 0.00 0.00 0.00 0.00 0.00 0.00 0.00 0.00 0.00 0.00 0.00 0.00 0.00 0.00 0.00 0.02 0.05 0.10 0.17 0.06 0.00 0.00 0.00 0.00 0.00 0.00 0.00
0.00 0.00 0.00 0.00 0.00 0.00 0.00 0.00 0.00 0.00 0.00 0.00 0.00 0.00 0.00 0.00 0.00 0.00 0.00 0.00 0.00 0.00 0.00 0.00 0.00 0.00 0.00 0.00 0.01 0.00 0.00 0.00 0.00 0.01 0.08 0.10 0.17 0.01 0.00 0.00 0.00 0.00 0.00 0.00 0.00
0.00 0.00 0.00 0.00 0.00 0.00 0.00 0.00 0.00 0.00 0.00 0.00 0.00 0.00 0.00 0.00 0.00 0.00 0.00 0.00 0.00 0.00 0.00 0.00 0.00 0.00 0.00 0.01 0.07 0.09 0.04 0.04 0.00 0.00 0.05 0.10 0.20 0.03 0.00 0.00 0.00 0.00 0.00 0.00 0.00
0.00 0.00 0.00 0.00 0.00 0.00 0.00 0.00 0.00 0.00 0.00 0.00 0.00 0.00 0.00 0.00 0.00 0.00 0.00 0.00 0.00 0.00 0.00 0.00 0.00 0.00 0.00 0.00 0.00 0.00 0.01 0.16 0.14 0.09 0.03 0.05 0.03 0.01 0.00 0.00 0.00 0.00 0.00 0.00 0.00
0.00 0.00 0.00 0.00 0.00 0.00 0.00 0.00 0.00 0.00 0.00 0.00 0.00 0.00 0.00 0.00 0.00 0.00 0.00 0.00 0.00 0.00 0.00 0.00 0.00 0.00 0.02 0.03 0.02 0.02 0.00 0.00 0.05 0.07 0.02 0.01 0.02 0.14 0.01 0.00 0.00 0.00 0.00 0.00 0.00
0.00 0.00 0.00 0.00 0.00 0.00 0.00 0.00 0.00 0.00 0.00 0.00 0.00 0.00 0.00 0.00 0.00 0.00 0.00 0.00 0.00 0.00 0.00 0.00 0.00 0.00 0.00 0.00 0.00 0.02 0.02 0.00 0.00 0.00 0.02 0.27 0.02 0.11 0.00 0.00 0.00 0.00 0.00 0.00 0.01
0.00 0.00 0.00 0.00 0.00 0.00 0.00 0.00 0.00 0.00 0.00 0.00 0.00 0.00 0.00 0.00 0.00 0.00 0.00 0.00 0.00 0.00 0.00 0.00 0.00 0.00 0.00 0.00 0.00 0.00 0.00 0.00 0.00 0.00 0.00 0.18 0.22 0.01 0.00 0.00 0.00 0.00 0.04 0.09 0.08
0.00 0.00 0.00 0.00 0.00 0.00 0.00 0.00 0.00 0.00 0.00 0.00 0.00 0.00 0.00 0.00 0.00 0.00 0.00 0.00 0.00 0.00 0.00 0.00 0.00 0.00 0.00 0.00 0.00 0.00 0.00 0.00 0.00 0.00 0.00 0.02 0.14 0.01 0.00 0.00 0.00 0.00 0.01 0.07 0.20
MSLP
1017.64 1017.39 1017.09 1016.88 1016.61 1016.35 1016.12 1015.86 1015.59 1015.37 1015.19 1014.95 1014.72 1014.47 1014.25 1013.92 1013.22 1012.61 1010.35 1009.61 1009.26 1009.70 1009.74 1008.12 1007.73 1006.95 1006.31 1004.94 1005.61 1005.58 1007.34 1008.27 1007.76 1008.17 1008.35 1006.88 1006.44 1006.98 1006.88 1006.82 1006.62 1007.09 1007.32 1008.86 1010.42
1017.66 1017.40 1017.09 1016.84 1016.55 1016.25 1015.97 1015.73 1015.49 1015.27 1015.06 1014.81 1014.61 1014.40 1014.08 1013.79 1012.24 1010.06 1009.66 1009.51 1009.71 1009.79 1009.01 1007.50 1006.69 1006.23 1005.08 1004.51 1004.65 1005.46 1006.55 1007.08 1008.29 1009.22 1008.99 1007.55 1007.93 1007.04 1006.89 1007.10 1007.16 1007.31 1008.11 1009.57 1010.67
1017.72 1017.42 1017.13 1016.85 1016.55 1016.21 1015.85 1015.60 1015.37 1015.14 1014.90 1014.64 1014.41 1014.21 1013.95 1013.55 1010.79 1008.08 1009.34 1009.61 1009.71 1009.65 1008.35 1007.00 1006.12 1005.63 1004.02 1003.84 1004.22 1005.35 1005.76 1006.62 1007.61 1009.08 1009.08 1008.27 1007.59 1007.76 1007.47 1007.28 1007.27 1007.88 1009.03 1010.11 1010.63
1017.81 1017.55 1017.29 1016.95 1016.62 1016.29 1015.92 1015.59 1015.29 1015.03 1014.76 1014.47 1014.21 1014.00 1013.78 1012.62 1008.57 1008.26 1009.29 1009.59 1009.64 1008.93 1007.81 1006.88 1006.10 1005.07 1003.24 1003.74 1004.49 1005.31 1006.23 1006.71 1007.86 1009.21 1009.18 1008.62 1008.39 1008.05 1008.33 1007.31 1007.26 1008.31 1009.49 1010.08 1010.25
1017.88 1017.56 1017.30 1016.97 1016.61 1016.22 1015.84 1015.51 1015.21 1014.94 1014.57 1014.26 1014.04 1013.87 1013.23 1010.15 1007.98 1008.19 1009.26 1009.53 1009.18 1008.41 1007.11 1006.17 1005.41 1004.34 1003.01 1002.97 1003.99 1005.48 1006.32 1007.14 1007.71 1008.65 1009.44 1009.09 1009.54 1008.99 1008.94 1008.43 1008.11 1008.75 1009.60 1009.94 1010.14
1017.90 1017.57 1017.24 1016.85 1016.46 1016.08 1015.70 1015.34 1015.02 1014.72 1014.36 1014.00 1013.84 1013.79 1011.86 1008.14 1007.89 1007.89 1008.31 1008.69 1007.86 1007.45 1006.58 1005.93 1004.89 1004.04 1003.45 1003.47 1003.90 1004.36 1006.07 1007.16 1007.80 1008.60 1009.59 1009.98 1010.98 1010.45 1010.36 1009.42 1008.81 1009.32 1009.53 1009.96 1010.56
1017.79 1017.46 1017.13 1016.77 1016.35 1015.90 1015.51 1015.13 1014.73 1014.36 1013.93 1013.74 1013.63 1012.95 1009.36 1008.29 1007.85 1007.93 1007.99 1007.61 1007.43 1006.89 1006.22 1005.88 1005.39 1004.96 1003.97 1003.37 1004.33 1005.14 1006.13 1006.88 1008.16 1008.87 1009.82 1010.89 1011.94 1012.06 1011.80 1010.90 1009.52 1009.61 1009.90 1010.15 1010.69
1017.74 1017.37 1016.99 1016.61 1016.14 1015.66 1015.25 1014.84 1014.38 1013.86 1013.58 1013.47 1013.41 1011.74 1008.60 1008.11 1007.72 1007.54 1007.48 1007.48 1007.60 1007.28 1006.60 1006.25 1006.33 1005.18 1004.11 1004.18 1004.40 1004.68 1005.23 1006.06 1007.49 1008.23 1009.50 1010.24 1011.64 1012.90 1012.65 1011.97 1010.55 1010.26 1010.32 1010.45 1010.80
1017.64 1017.25 1016.83 1016.38 1015.92 1015.45 1014.97 1014.51 1013.98 1013.47 1013.32 1013.16 1012.50 1010.20 1007.60 1008.75 1007.79 1007.10 1006.98 1006.74 1007.16 1007.06 1007.05 1006.91 1006.35 1004.89 1004.38 1003.85 1003.54 1003.58 1004.72 1006.72 1006.96 1007.98 1008.81 1009.73 1010.63 1012.14 1012.86 1012.47 1011.89 1011.40 1010.69 1010.55 1010.84
1017.61 1017.13 1016.67 1016.20 1015.70 1015.21 1014.58 1014.21 1013.61 1013.40 1012.91 1011.72 1010.41 1008.78 1007.40 1006.83 1006.95 1006.98 1007.12 1007.02 1006.73 1006.66 1006.66 1006.48 1005.56 1004.32 1003.73 1002.89 1002.46 1003.76 1003.45 1004.71 1006.12 1007.43 1008.21 1008.86 1009.75 1010.96 1012.40 1012.78 1012.26 1011.98 1011.54 1010.57 1010.59
1017.58 1017.05 1016.48 1015.96 1015.50 1015.10 1014.12 1012.91 1012.83 1011.52 1009.45 1008.05 1007.02 1006.43 1006.36 1006.94 1006.97 1006.79 1006.96 1006.72 1006.56 1006.26 1005.36 1005.46 1004.58 1003.28 1002.51 1002.11 1003.36 1003.56 1003.94 1004.78 1006.65 1006.79 1007.51 1007.95 1008.61 1010.32 1011.84 1012.49 1012.45 1012.30 1011.76 1010.73 1010.59
1017.46 1016.92 1016.28 1015.72 1015.28 1014.83 1014.37 1009.88 1009.37 1008.89 1007.36 1007.07 1006.80 1006.29 1006.35 1006.09 1006.11 1006.43 1006.61 1005.80 1005.85 1005.06 1004.68 1004.68 1003.65 1002.74 1002.44 1002.33 1002.96 1003.23 1003.24 1004.38 1005.31 1006.53 1007.01 1007.30 1007.48 1008.80 1010.51 1011.14 1011.96 1012.42 1011.39 1010.74 1010.03
1017.35 1016.77 1016.12 1015.53 1014.94 1014.13 1011.10 1009.43 1008.86 1008.56 1006.60 1006.12 1005.69 1005.13 1005.38 1005.58 1005.05 1005.68 1006.12 1005.38 1004.95 1004.35 1004.37 1003.36 1002.82 1002.62 1002.72 1003.14 1003.21 1003.04 1003.10 1004.60 1005.00 1006.52 1006.16 1006.48 1006.43 1007.65 1009.01 1010.19 1011.50 1012.10 1011.95 1010.93 1010.17
1017.22 1016.64 1016.01 1015.31 1014.81 1010.64 1009.28 1009.04 1008.67 1008.63 1005.93 1005.07 1004.73 1004.83 1005.20 1004.81 1004.85 1005.51 1005.51 1005.05 1004.83 1004.01 1003.93 1003.29 1002.61 1002.97 1003.41 1003.20 1003.27 1002.49 1003.14 1004.31 1004.59 1004.89 1004.86 1005.23 1004.65 1006.29 1007.73 1009.12 1010.67 1011.36 1011.04 1010.04 1009.71
1017.04 1016.48 1015.92 1015.96 1013.59 1009.87 1009.10 1008.64 1008.49 1008.28 1004.53 1004.45 1004.00 1004.63 1004.49 1004.26 1004.69 1005.25 1005.55 1005.15 1004.10 1003.99 1004.10 1002.74 1002.97 1003.69 1003.29 1002.88 1002.87 1003.65 1004.42 1004.17 1003.92 1003.97 1003.47 1002.94 1003.73 1004.48 1006.02 1007.70 1008.75 1009.79 1009.82 1009.19 1008.43
1016.56 1016.14 1015.63 1013.98 1012.79 1009.77 1009.15 1008.69 1008.27 1006.67 1003.58 1003.68 1003.76 1003.79 1003.78 1003.85 1004.17 1004.87 1005.24 1005.22 1004.47 1004.03 1004.01 1003.28 1003.57 1003.43 1002.94 1002.88 1002.86 1003.14 1003.47 1003.65 1003.94 1003.65 1002.79 1002.25 1003.03 1005.42 1005.91 1005.93 1006.53 1008.15 1008.12 1007.91 1007.75
1015.92 1015.51 1015.29 1012.52 1009.67 1009.33 1009.08 1008.27 1006.46 1003.96 1003.90 1003.38 1002.83 1003.08 1002.95 1003.27 1003.81 1004.17 1004.29 1004.09 1003.28 1003.11 1002.81 1003.21 1003.32 1003.33 1003.19 1002.76 1002.75 1003.26 1003.07 1002.27 1002.30 1002.10 1002.35 1003.42 1003.22 1004.75 1005.21 1004.16 1004.50 1006.38 1006.47 1006.81 1007.01
1015.06 1014.74 1012.91 1011.17 1009.85 1009.78 1008.89 1007.41 1004.95 1003.42 1003.00 1003.27 1003.20 1003.13 1002.68 1003.15 1003.22 1003.60 1003.50 1002.81 1003.19 1002.92 1001.72 1001.70 1001.99 1002.58 1002.88 1002.74 1002.13 1002.71 1002.37 1001.44 1002.17 1004.05 1003.81 1005.02 1003.86 1005.66 1003.70 1003.69 1003.45 1004.01 1005.25 1005.97 1006.79
1013.95 1011.94 1010.69 1009.37 1010.05 1009.83 1008.51 1005.61 1003.09 1003.13 1002.96 1002.93 1002.91 1002.28 1002.27 1003.03 1003.31 1003.24 1002.89 1002.16 1002.68 1002.63 1002.08 1001.01 1001.19 1002.04 1002.36 1002.78 1002.65 1002.01 1002.42 1001.61 1002.53 1003.23 1004.14 1005.95 1004.88 1004.45 1003.41 1003.38 1003.44 1003.56 1003.98 1005.25 1005.63
1013.75 1009.85 1008.12 1008.65 1009.31 1009.03 1007.39 1004.72 1003.22 1003.57 1003.57 1003.41 1002.37 1002.50 1001.68 1002.03 1002.70 1002.71 1002.61 1002.81 1002.71 1003.18 1002.79 1001.75 1001.70 1001.99 1002.50 1003.01 1002.96 1002.72 1002.61 1002.26 1002.49 1004.37 1005.20 1007.08 1006.31 1005.13 1003.94 1003.62 1003.75 1003.58 1003.77 1004.56 1005.70
1013.00 1008.90 1007.68 1008.40 1008.78 1007.72 1005.55 1003.40 1003.24 1003.68 1003.90 1003.27 1002.61 1002.48 1002.32 1002.26 1002.46 1002.21 1002.16 1002.82 1003.31 1003.01 1003.19 1002.27 1001.93 1003.66 1002.74 1003.45 1005.08 1003.77 1003.94 1003.17 1003.25 1004.83 1007.22 1007.27 1008.10 1005.19 1004.93 1004.19 1003.71 1003.97 1004.22 1004.80 1005.70
1011.42 1008.00 1007.73 1008.00 1007.54 1005.89 1004.27 1003.16 1003.70 1003.11 1003.86 1003.42 1003.41 1002.73 1002.56 1002.72 1002.50 1002.33 1002.26 1002.70 1003.89 1003.42 1002.81 1002.40 1002.10 1002.52 1003.24 1004.22 1005.89 1006.56 1006.68 1005.71 1006.18 1006.27 1007.60 1009.27 1009.44 1007.00 1005.78 1005.01 1004.66 1004.85 1005.12 1005.72 1006.89
1011.31 1007.53 1007.51 1007.45 1005.79 1004.33 1003.64 1003.28 1003.55 1003.09 1003.18 1003.32 1003.19 1003.34 1003.18 1003.12 1003.09 1002.80 1002.85 1003.65 1004.25 1003.90 1003.78 1003.41 1002.47 1002.12 1002.35 1003.40 1006.03 1005.85 1006.62 1008.31 1009.84 1010.23 1008.26 1008.91 1008.92 1006.89 1006.49 1006.27 1006.21 1005.97 1005.97 1006.72 1008.07
1012.18 1007.90 1006.43 1006.80 1005.54 1003.72 1002.85 1002.95 1003.04 1003.40 1003.04 1002.99 1003.22 1003.51 1003.52 1003.47 1003.55 1003.31 1003.30 1003.67 1004.62 1004.41 1005.22 1004.98 1003.40 1002.78 1002.94 1005.76 1007.56 1006.40 1006.33 1006.58 1008.43 1010.30 1009.16 1007.69 1007.44 1008.51 1007.57 1006.64 1007.40 1007.87 1007.40 1007.31 1008.65
1011.85 1007.99 1006.35 1004.98 1004.86 1004.17 1003.26 1002.49 1002.63 1002.41 1003.30 1003.25 1003.38 1003.56 1003.32 1003.19 1003.15 1003.36 1003.50 1003.32 1004.16 1004.97 1005.18 1004.42 1003.64 1003.34 1003.57 1004.47 1005.41 1005.95 1006.45 1005.34 1005.48 1006.12 1007.97 1008.96 1008.77 1007.13 1008.14 1008.92 1008.32 1009.40 1008.76 1008.54 1009.76
1011.75 1009.39 1007.70 1006.42 1005.00 1004.13 1003.61 1002.98 1002.59 1002.39 1002.45 1002.87 1003.27 1003.26 1003.49 1003.59 1003.46 1003.04 1003.23 1003.39 1003.46 1004.24 1004.23 1004.00 1003.90 1004.01 1003.98 1003.66 1003.83 1003.99 1003.79 1003.95 1004.46 1005.31 1006.81 1008.61 1008.46 1007.69 1009.71 1009.74 1009.75 1010.50 1010.86 1010.89 1010.64
1012.76 1011.69 1010.63 1007.68 1005.94 1004.75 1003.58 1003.22 1003.08 1002.96 1002.55 1002.53 1002.69 1003.16 1003.22 1003.49 1003.77 1003.94 1004.01 1003.84 1003.86 1004.31 1004.32 1004.30 1004.15 1004.13 1003.93 1004.58 1004.91 1003.64 1002.91 1003.13 1003.55 1004.60 1004.96 1005.97 1006.27 1007.14 1009.04 1009.90 1010.77 1011.35 1011.91 1012.36 1012.64
Thickness
5744 5745 5746 5747 5748 5749 5750 5752 5753 5754 5755 5756 5758 5761 5763 5765 5771 5777 5789 5799 5802 5799 5800 5811 5810 5813 5818 5819 5818 5820 5759 5735 5756 5761 5755 5797 5793 5800 5807 5795 5802 5801 5797 5791 5786
5743 5744 5745 5746 5747 5748 5750 5751 5752 5752 5753 5755 5756 5758 5761 5764 5777 5790 5798 5799 5798 5797 5800 5803 5801 5811 5810 5815 5817 5795 5773 5772 5776 5763 5757 5788 5782 5795 5792 5787 5789 5793 5798 5791 5783
5742 5743 5744 5745 5746 5748 5750 5751 5751 5752 5752 5753 5755 5757 5759 5763 5781 5799 5798 5796 5796 5796 5806 5812 5815 5811 5812 5822 5815 5801 5784 5794 5788 5773 5774 5782 5789 5795 5784 5777 5789 5782 5781 5781 5779
5741 5742 5743 5745 5746 5747 5749 5750 5751 5752 5753 5754 5755 5756 5758 5767 5777 5800 5796 5794 5794 5799 5804 5803 5803 5800 5812 5801 5812 5790 5798 5798 5787 5777 5776 5779 5791 5786 5782 5791 5805 5794 5786 5783 5780
5741 5742 5743 5744 5746 5747 5748 5749 5750 5750 5752 5753 5754 5755 5762 5777 5785 5801 5794 5792 5794 5799 5799 5800 5797 5805 5807 5817 5812 5789 5792 5793 5793 5786 5773 5787 5773 5780 5779 5794 5803 5794 5784 5783 5784
5740 5742 5743 5745 5746 5747 5749 5749 5750 5750 5752 5753 5753 5753 5767 5775 5798 5799 5796 5793 5798 5798 5800 5804 5803 5817 5812 5810 5805 5811 5796 5789 5790 5784 5777 5770 5757 5768 5773 5789 5792 5788 5784 5784 5780
5741 5742 5743 5745 5746 5748 5749 5749 5750 5751 5752 5752 5752 5757 5779 5773 5795 5794 5795 5795 5799 5800 5794 5806 5811 5802 5812 5805 5813 5803 5781 5787 5779 5777 5768 5764 5735 5744 5759 5772 5784 5782 5782 5783 5781
5740 5742 5743 5745 5746 5748 5749 5750 5751 5752 5752 5751 5749 5762 5768 5790 5793 5792 5794 5789 5794 5797 5798 5804 5804 5802 5805 5811 5801 5790 5793 5769 5779 5782 5773 5769 5726 5737 5750 5757 5771 5777 5777 5779 5779
5740 5741 5743 5744 5746 5747 5749 5750 5750 5751 5750 5749 5754 5765 5766 5782 5777 5791 5794 5783 5785 5789 5791 5794 5794 5793 5797 5786 5784 5795 5761 5742 5767 5781 5773 5766 5747 5745 5748 5754 5759 5763 5774 5778 5777
5739 5741 5742 5744 5746 5747 5750 5750 5750 5749 5751 5757 5765 5759 5773 5770 5781 5784 5789 5786 5777 5778 5774 5775 5781 5779 5785 5788 5769 5762 5787 5780 5763 5774 5772 5764 5757 5759 5751 5749 5754 5758 5765 5777 5779
5737 5739 5742 5743 5745 5745 5749 5759 5755 5755 5769 5768 5774 5771 5772 5778 5784 5775 5781 5776 5775 5769 5758 5771 5762 5763 5785 5804 5788 5790 5784 5768 5762 5781 5771 5768 5766 5759 5752 5749 5749 5751 5762 5776 5778
5735 5738 5741 5743 5744 5744 5745 5772 5768 5770 5761 5776 5773 5774 5777 5782 5761 5768 5781 5765 5760 5753 5769 5761 5756 5786 5798 5803 5788 5787 5786 5772 5780 5778 5772 5768 5771 5770 5762 5761 5754 5745 5764 5771 5783
5733 5736 5739 5741 5743 5747 5767 5769 5777 5775 5761 5765 5775 5775 5773 5778 5766 5762 5771 5769 5759 5756 5756 5758 5773 5789 5781 5774 5771 5783 5783 5764 5763 5756 5778 5772 5769 5768 5771 5767 5757 5750 5756 5768 5776
5731 5734 5737 5740 5742 5772 5768 5775 5776 5773 5748 5754 5763 5770 5773 5778 5759 5777 5779 5769 5757 5753 5759 5763 5785 5767 5764 5764 5774 5779 5792 5774 5766 5764 5744 5782 5757 5771 5771 5761 5752 5745 5757 5776 5781
5730 5732 5735 5731 5747 5763 5770 5776 5776 5764 5728 5764 5768 5789 5780 5767 5765 5760 5778 5766 5754 5754 5756 5760 5760 5751 5753 5767 5782 5757 5774 5772 5774 5770 5782 5797 5777 5781 5785 5760 5760 5755 5765 5779 5791
5730 5732 5734 5743 5747 5768 5772 5774 5767 5734 5727 5756 5770 5762 5760 5767 5764 5765 5759 5769 5771 5756 5757 5760 5772 5766 5770 5778 5782 5785 5773 5773 5772 5773 5764 5800 5789 5747 5760 5772 5779 5769 5777 5786 5794
5732 5734 5734 5749 5761 5770 5770 5761 5735 5737 5766 5753 5761 5767 5764 5756 5755 5756 5750 5748 5748 5736 5740 5751 5753 5767 5775 5763 5778 5770 5763 5754 5754 5765 5765 5767 5786 5759 5764 5795 5794 5776 5786 5794 5797
5735 5736 5750 5757 5765 5763 5760 5744 5722 5755 5757 5770 5764 5763 5755 5758 5758 5755 5752 5752 5762 5758 5763 5750 5736 5760 5771 5764 5767 5762 5771 5765 5730 5708 5740 5752 5767 5740 5796 5804 5810 5804 5798 5797 5793
5739 5754 5758 5769 5760 5759 5744 5733 5754 5755 5767 5759 5761 5757 5758 5757 5754 5752 5754 5767 5764 5767 5749 5763 5758 5775 5775 5776 5777 5772 5755 5797 5758 5772 5758 5735 5763 5782 5800 5797 5800 5801 5804 5794 5803
5734 5759 5767 5769 5762 5753 5739 5736 5758 5766 5763 5760 5747 5758 5758 5762 5751 5752 5752 5763 5760 5764 5772 5769 5744 5772 5772 5777 5779 5772 5789 5765 5775 5723 5724 5718 5696 5725 5768 5779 5788 5793 5798 5799 5799
5731 5747 5767 5765 5759 5745 5733 5755 5761 5767 5762 5753 5753 5751 5757 5756 5757 5758 5760 5761 5761 5762 5767 5770 5764 5734 5769 5756 5718 5761 5758 5779 5782 5752 5709 5709 5697 5768 5763 5777 5785 5790 5795 5796 5794
5733 5731 5761 5760 5732 5747 5747 5762 5748 5764 5761 5756 5756 5757 5754 5754 5754 5756 5757 5756 5760 5763 5754 5774 5764 5740 5745 5757 5741 5722 5728 5752 5735 5745 5720 5696 5680 5754 5767 5775 5783 5783 5786 5787 5781
5719 5739 5753 5749 5725 5741 5757 5756 5756 5756 5755 5750 5747 5752 5756 5746 5735 5752 5754 5757 5755 5754 5745 5758 5756 5745 5751 5762 5741 5744 5735 5719 5690 5701 5718 5693 5706 5762 5767 5764 5770 5772 5778 5777 5767
5702 5715 5735 5734 5744 5748 5748 5746 5743 5757 5754 5757 5749 5749 5743 5737 5745 5738 5742 5750 5749 5749 5736 5745 5749 5748 5729 5707 5706 5723 5736 5728 5704 5673 5709 5737 5741 5716 5744 5758 5752 5754 5767 5774 5762
5696 5710 5727 5725 5728 5736 5746 5750 5740 5742 5749 5752 5739 5738 5738 5729 5735 5731 5741 5750 5746 5729 5737 5746 5730 5748 5752 5742 5735 5717 5714 5745 5757 5747 5716 5693 5699 5725 5732 5729 5743 5740 5756 5761 5750
5678 5692 5710 5714 5730 5729 5724 5732 5735 5743 5746 5736 5731 5738 5737 5724 5731 5732 5740 5741 5739 5741 5738 5748 5725 5736 5730 5751 5751 5745 5761 5758 5755 5752 5714 5686 5696 5738 5726 5727 5730 5732 5730 5732 5745
5669 5676 5675 5694 5709 5713 5723 5727 5729 5738 5747 5750 5745 5735 5730 5733 5740 5741 5743 5746 5744 5729 5727 5727 5728 5724 5717 5726 5718 5728 5753 5756 5752 5750 5747 5729 5720 5740 5723 5720 5718 5720 5720 5715 5716